Retour au catalogue

STARLINK-3268

ActifCommunicationsVLEO
NORAD 50190·PAYLOAD·🇺🇸 United States

Lancé Dec 18, 2021 depuis Vandenberg Space Force Base

Loading…

Prochains Passages (prochaines 24 heures)

TLE

FraisSource: CelesTrak SupGP

Époque: Sep 14, 2026, 21:49 UTC

1 50190C 21125AL  26257.90951389  .00024278  00000+0  71734-3 0  2576
2 50190  53.1580  93.5140 0001141  79.9632 105.1689 15.34377082    15

Suivez STARLINK-3268 en temps réel avec AllMySat

Download on the App Store